• Em Portugal
  • Lista de países
  • Para 7 dias
  • Temperatura da água
  • Mapas de satélite
  • Mapa do tempo
  • Widgets de tempo
  • user-avatar
    Iniciar Sessão

    Previsão horária em Budzisz

    Hoje, 19 Agosto, Domingo

    Tempo Temperatura Precipitação Vento Pressão Humidade
    00:00 +17°C° 0 mm 2 m/s 760 mmHg 82%
    01:00 +17°C° 0 mm 2 m/s 760 mmHg 83%
    02:00 +17°C° 0 mm 2 m/s 760 mmHg 84%
    03:00 +17°C° 0 mm 2 m/s 760 mmHg 85%
    04:00 +17°C° 0 mm 2 m/s 760 mmHg 87%
    05:00 +18°C° 0 mm 2 m/s 760 mmHg 84%
    06:00 +19°C° 0 mm 2 m/s 760 mmHg 81%
    07:00 +21°C° 0 mm 2 m/s 760 mmHg 79%
    08:00 +23°C° 0 mm 2 m/s 760 mmHg 70%
    09:00 +25°C° 0 mm 3 m/s 760 mmHg 61%
    10:00 +26°C° 0 mm 3 m/s 760 mmHg 52%
    11:00 +27°C° 0 mm 3 m/s 760 mmHg 49%
    12:00 +28°C° 0 mm 3 m/s 760 mmHg 46%
    13:00 +28°C° 0 mm 3 m/s 760 mmHg 43%
    14:00 +28°C° 0 mm 3 m/s 759 mmHg 44%
    15:00 +28°C° 0 mm 2 m/s 759 mmHg 44%
    16:00 +28°C° 0 mm 2 m/s 759 mmHg 45%
    17:00 +26°C° 0 mm 2 m/s 759 mmHg 52%
    18:00 +24°C° 0 mm 2 m/s 759 mmHg 60%
    19:00 +23°C° 0 mm 2 m/s 758 mmHg 67%
    20:00 +21°C° 0 mm 2 m/s 758 mmHg 70%
    21:00 +20°C° 0 mm 2 m/s 758 mmHg 74%
    22:00 +19°C° 0 mm 2 m/s 758 mmHg 77%
    23:00 +19°C° 0 mm 2 m/s 758 mmHg 75%

    Amanhã, 20 Agosto, Segunda-feira

    Tempo Temperatura Precipitação Vento Pressão Humidade
    00:00 +19°C° 0 mm 2 m/s 757 mmHg 74%
    01:00 +19°C° 0 mm 2 m/s 757 mmHg 72%
    02:00 +19°C° 0 mm 3 m/s 757 mmHg 69%
    03:00 +19°C° 0 mm 3 m/s 756 mmHg 67%
    04:00 +19°C° 0 mm 3 m/s 756 mmHg 64%
    05:00 +20°C° 0 mm 4 m/s 756 mmHg 63%
    06:00 +21°C° 0 mm 4 m/s 756 mmHg 61%
    07:00 +22°C° 0 mm 5 m/s 756 mmHg 59%
    08:00 +23°C° 0 mm 5 m/s 755 mmHg 56%
    09:00 +26°C° 0 mm 5 m/s 755 mmHg 53%
    10:00 +27°C° 0 mm 5 m/s 755 mmHg 50%
    11:00 +28°C° 0 mm 5 m/s 755 mmHg 50%
    12:00 +28°C° 0 mm 6 m/s 755 mmHg 50%
    13:00 +29°C° 0 mm 6 m/s 755 mmHg 50%
    14:00 +27°C° 0,1 mm 6 m/s 754 mmHg 56%
    15:00 +26°C° 0,1 mm 5 m/s 754 mmHg 62%
    16:00 +25°C° 0,1 mm 5 m/s 754 mmHg 68%
    17:00 +23°C° 0,1 mm 5 m/s 754 mmHg 71%
    18:00 +22°C° 0,1 mm 5 m/s 754 mmHg 74%
    19:00 +21°C° 0,1 mm 5 m/s 755 mmHg 78%
    20:00 +20°C° 0 mm 5 m/s 755 mmHg 77%
    21:00 +17°C° 0 mm 5 m/s 755 mmHg 77%
    22:00 +16°C° 0 mm 5 m/s 755 mmHg 77%
    23:00 +16°C° 0 mm 5 m/s 755 mmHg 77%

    Depois de amanhã, 21 Agosto, Terça-feira

    Tempo Temperatura Precipitação Vento Pressão Humidade
    00:00 +15°C° 0 mm 5 m/s 755 mmHg 76%
    01:00 +15°C° 0 mm 5 m/s 756 mmHg 76%
    02:00 +15°C° 0 mm 5 m/s 756 mmHg 77%
    03:00 +14°C° 0 mm 5 m/s 756 mmHg 78%
    04:00 +14°C° 0 mm 5 m/s 757 mmHg 79%
    05:00 +15°C° 0 mm 5 m/s 757 mmHg 77%
    06:00 +16°C° 0 mm 5 m/s 758 mmHg 75%
    07:00 +17°C° 0 mm 5 m/s 758 mmHg 74%
    08:00 +19°C° 0,1 mm 5 m/s 759 mmHg 69%
    09:00 +20°C° 0,1 mm 5 m/s 759 mmHg 64%
    10:00 +21°C° 0,1 mm 5 m/s 759 mmHg 59%
    11:00 +22°C° 0 mm 5 m/s 760 mmHg 57%
    12:00 +22°C° 0 mm 5 m/s 760 mmHg 54%
    13:00 +23°C° 0 mm 5 m/s 760 mmHg 51%
    14:00 +23°C° 0 mm 5 m/s 760 mmHg 52%
    15:00 +22°C° 0 mm 4 m/s 760 mmHg 53%
    16:00 +22°C° 0 mm 4 m/s 760 mmHg 53%
    17:00 +20°C° 0 mm 3 m/s 760 mmHg 59%
    18:00 +19°C° 0 mm 3 m/s 761 mmHg 66%
    19:00 +17°C° 0 mm 2 m/s 761 mmHg 72%
    20:00 +16°C° 0 mm 2 m/s 761 mmHg 74%
    21:00 +15°C° 0 mm 2 m/s 762 mmHg 76%
    22:00 +15°C° 0 mm 1 m/s 762 mmHg 78%
    23:00 +14°C° 0 mm 1 m/s 762 mmHg 79%

    22 Agosto, Quarta-feira

    Tempo Temperatura Precipitação Vento Pressão Humidade
    00:00 +14°C° 0 mm 1 m/s 762 mmHg 80%
    01:00 +14°C° 0 mm 2 m/s 762 mmHg 81%
    02:00 +13°C° 0 mm 2 m/s 762 mmHg 82%
    03:00 +13°C° 0 mm 2 m/s 762 mmHg 82%
    04:00 +13°C° 0 mm 2 m/s 762 mmHg 83%
    05:00 +14°C° 0 mm 2 m/s 762 mmHg 79%
    06:00 +15°C° 0 mm 2 m/s 762 mmHg 75%
    07:00 +17°C° 0 mm 3 m/s 762 mmHg 71%
    08:00 +18°C° 0 mm 3 m/s 762 mmHg 65%
    09:00 +20°C° 0 mm 3 m/s 762 mmHg 59%
    10:00 +22°C° 0 mm 3 m/s 762 mmHg 53%
    11:00 +24°C° 0 mm 3 m/s 762 mmHg 51%
    12:00 +25°C° 0 mm 3 m/s 761 mmHg 49%
    13:00 +26°C° 0 mm 3 m/s 761 mmHg 47%
    14:00 +26°C° 0 mm 3 m/s 761 mmHg 47%
    15:00 +26°C° 0 mm 3 m/s 760 mmHg 47%
    16:00 +27°C° 0 mm 3 m/s 760 mmHg 47%
    17:00 +25°C° 0 mm 3 m/s 760 mmHg 53%
    18:00 +22°C° 0 mm 3 m/s 759 mmHg 59%
    19:00 +21°C° 0 mm 3 m/s 759 mmHg 65%
    20:00 +20°C° 0 mm 4 m/s 759 mmHg 64%
    21:00 +19°C° 0 mm 4 m/s 759 mmHg 64%
    22:00 +19°C° 0 mm 4 m/s 759 mmHg 64%
    23:00 +18°C° 0 mm 4 m/s 759 mmHg 62%

    23 Agosto, Quinta-feira

    Tempo Temperatura Precipitação Vento Pressão Humidade
    00:00 +18°C° 0 mm 4 m/s 759 mmHg 61%
    01:00 +18°C° 0 mm 4 m/s 758 mmHg 60%
    02:00 +18°C° 0 mm 4 m/s 758 mmHg 61%
    03:00 +17°C° 0 mm 4 m/s 758 mmHg 61%
    04:00 +17°C° 0 mm 4 m/s 758 mmHg 62%
    05:00 +18°C° 0 mm 4 m/s 758 mmHg 64%
    06:00 +19°C° 0 mm 4 m/s 757 mmHg 65%
    07:00 +20°C° 0 mm 4 m/s 757 mmHg 66%
    08:00 +22°C° 0 mm 4 m/s 757 mmHg 63%
    09:00 +23°C° 0 mm 4 m/s 757 mmHg 59%
    10:00 +26°C° 0 mm 4 m/s 757 mmHg 56%
    11:00 +26°C° 0 mm 4 m/s 757 mmHg 55%
    12:00 +27°C° 0 mm 4 m/s 756 mmHg 54%
    13:00 +27°C° 0 mm 3 m/s 756 mmHg 53%
    14:00 +27°C° 0 mm 3 m/s 756 mmHg 52%
    15:00 +28°C° 0 mm 3 m/s 755 mmHg 51%
    16:00 +28°C° 0 mm 3 m/s 755 mmHg 50%
    17:00 +27°C° 0 mm 3 m/s 755 mmHg 54%
    18:00 +26°C° 0 mm 3 m/s 754 mmHg 58%
    19:00 +24°C° 0 mm 3 m/s 754 mmHg 61%
    20:00 +24°C° 0 mm 3 m/s 754 mmHg 62%
    21:00 +22°C° 0 mm 3 m/s 754 mmHg 63%
    22:00 +21°C° 0 mm 3 m/s 753 mmHg 64%
    23:00 +21°C° 0 mm 3 m/s 753 mmHg 63%

    24 Agosto, Sexta-feira

    Tempo Temperatura Precipitação Vento Pressão Humidade
    00:00 +21°C° 0 mm 4 m/s 753 mmHg 62%
    01:00 +21°C° 0 mm 4 m/s 753 mmHg 60%
    02:00 +21°C° 0 mm 4 m/s 752 mmHg 61%
    03:00 +21°C° 0 mm 4 m/s 752 mmHg 61%
    04:00 +21°C° 0 mm 4 m/s 751 mmHg 61%
    05:00 +22°C° 0 mm 4 m/s 751 mmHg 61%
    06:00 +22°C° 0 mm 5 m/s 751 mmHg 62%
    07:00 +22°C° 0 mm 5 m/s 751 mmHg 62%
    08:00 +25°C° 0,1 mm 5 m/s 750 mmHg 61%
    09:00 +26°C° 0,1 mm 5 m/s 750 mmHg 59%
    10:00 +27°C° 0,1 mm 5 m/s 750 mmHg 58%
    11:00 +29°C° 0 mm 5 m/s 749 mmHg 54%
    12:00 +30°C° 0 mm 5 m/s 749 mmHg 51%
    13:00 +32°C° 0 mm 5 m/s 748 mmHg 48%
    14:00 +30°C° 0,1 mm 4 m/s 748 mmHg 50%
    15:00 +30°C° 0,1 mm 4 m/s 748 mmHg 53%
    16:00 +29°C° 0,1 mm 3 m/s 747 mmHg 56%
    17:00 +27°C° 1,4 mm 4 m/s 748 mmHg 65%
    18:00 +25°C° 1,4 mm 5 m/s 748 mmHg 75%
    19:00 +22°C° 1,4 mm 5 m/s 748 mmHg 84%
    20:00 +20°C° 0,9 mm 5 m/s 748 mmHg 85%
    21:00 +19°C° 0,9 mm 5 m/s 749 mmHg 87%
    22:00 +17°C° 0,9 mm 5 m/s 749 mmHg 89%
    23:00 +17°C° 0 mm 4 m/s 750 mmHg 89%
    Mostrar mais